Regional Weather Roundup
Issued by NWS

Home | Current Version | Previous Version | Graphics & Text | Print | Product List | Glossary On
Versions: 1 2 3 4 5 6 7 8 9 10 11 12 13 14 15 16 17 18 19 20 21 22 23 24 25 26 27 28 29 30 31 32 33 34 35 36 37 38 39 40 41 42 43 44 45 46 47 48 49 50
000
ASUS43 KMKX 261820
RWRWI

WISCONSIN REGIONAL WEATHER ROUNDUP
NATIONAL WEATHER SERVICE MILWAUKEE/SULLIVAN WI
100 PM CDT THU APR 26 2018

NOTE: "FAIR" INDICATES FEW OR NO CLOUDS BELOW 12,000 FEET WITH NO
SIGNIFICANT WEATHER AND/OR OBSTRUCTIONS TO VISIBILITY.

WIZ001-002-006>008-014>016-023>028-261900-
NORTHWEST WISCONSIN

CITY           SKY/WX    TMP DP  RH WIND       PRES   REMARKS
SUPERIOR ARPT  FAIR      57  37  46 N16G24    29.84R
6HR MIN TEMP:  37; 6HR MAX TEMP:  58;

ASHLAND        CLOUDY    57  34  41 NW10      29.81R
6HR MIN TEMP:  42; 6HR MAX TEMP:  59;

HAYWARD        FAIR      60  33  36 NW8G18    29.81S
6HR MIN TEMP:  30; 6HR MAX TEMP:  61;

SIREN          FAIR      60  33  36 N7G21     29.84R
6HR MIN TEMP:  32; 6HR MAX TEMP:  60;

CUMBERLAND     PTSUNNY   57  32  38 W12       29.83S
RICE LAKE      FAIR      60  33  36 W7        29.84S
6HR MIN TEMP:  31; 6HR MAX TEMP:  61;

CHETEK         FAIR      62  35  35 W8G18     29.82S
6HR MIN TEMP:  30; 6HR MAX TEMP:  63;

LADYSMITH      FAIR      63  33  32 SW14      29.82F
6HR MIN TEMP:  32; 6HR MAX TEMP:  62;

EAU CLAIRE     FAIR      65  32  29 SW13G24   29.81F
6HR MIN TEMP:  32; 6HR MAX TEMP:  67;

MENOMONIE      FAIR      67  32  28 W13G21    29.82S
6HR MIN TEMP:  34; 6HR MAX TEMP:  67;

NEW RICHMOND   FAIR      61  31  31 W14       29.84S
6HR MIN TEMP:  38; 6HR MAX TEMP:  62;

OSCEOLA        FAIR      61  36  39 NW15      29.87S
6HR MIN TEMP:  40; 6HR MAX TEMP:  61;

$$

WIZ003>005-009-010-017-018-261900-
NORTH CENTRAL WISCONSIN

CITY           SKY/WX    TMP DP  RH WIND       PRES   REMARKS
MANITOWISH WTR FAIR      55  31  39 SW7       29.79F
6HR MIN TEMP:  27; 6HR MAX TEMP:  56;

ARBOR VITAE    FAIR      59  32  35 SW13      29.79F
6HR MIN TEMP:  32; 6HR MAX TEMP:  59;

WOODRUFF       FAIR      59  32  35 SW13      29.79F
6HR MIN TEMP:  32; 6HR MAX TEMP:  59;

RHINELANDER    FAIR      60  32  34 SW10      29.81F
6HR MIN TEMP:  36; 6HR MAX TEMP:  60;

EAGLE RIVER    FAIR      58  27  30 W13G23    29.79F
6HR MIN TEMP:  27; 6HR MAX TEMP:  58;

LAND O LAKES   FAIR      58  28  30 SW8       29.80S
6HR MIN TEMP:  27; 6HR MAX TEMP:  58;

PHILLIPS       FAIR      58  32  37 SW12G17   29.79F
6HR MIN TEMP:  30; 6HR MAX TEMP:  59;

TOMAHAWK       FAIR      59  31  34 SW7       29.82F
6HR MIN TEMP:  29; 6HR MAX TEMP:  59;

MEDFORD        FAIR      59  33  37 W10G16    29.82F
6HR MIN TEMP:  35; 6HR MAX TEMP:  59;

MERRILL        FAIR      60  35  38 SW12G18   29.83S
6HR MIN TEMP:  28; 6HR MAX TEMP:  61;

$$

WIZ029-030-035-036-043>047-261900-
CENTRAL WISCONSIN

CITY           SKY/WX    TMP DP  RH WIND       PRES   REMARKS
WAUSAU         FAIR      61  31  32 W15G22    29.81F
6HR MIN TEMP:  32; 6HR MAX TEMP:  61;

MOSINEE        MOSUNNY   61  30  31 SW9G18    29.85F
MARSHFIELD     FAIR      62  33  33 W13G18    29.83F
6HR MIN TEMP:  36; 6HR MAX TEMP:  62;

STEVENS POINT  FAIR      59  30  32 W7        29.84F
6HR MIN TEMP:  30; 6HR MAX TEMP:  59;

WAUPACA        FAIR      65  28  24 SW12      29.85F
6HR MIN TEMP:  36; 6HR MAX TEMP:  64;

WAUTOMA        FAIR      63  28  26 SW14G21   29.86F
6HR MIN TEMP:  30; 6HR MAX TEMP:  63;

WISC RAPIDS    FAIR      65  28  24 SW14      29.85F
6HR MIN TEMP:  31; 6HR MAX TEMP:  65;

CAMP DOUGLAS   NOT AVBL
$$

WIZ011>013-019>022-031-037>040-048>050-261900-
NORTHEAST WISCONSIN

CITY           SKY/WX    TMP DP  RH WIND       PRES   REMARKS
ANTIGO         FAIR      57  36  44 SW15      29.82F
6HR MIN TEMP:  31; 6HR MAX TEMP:  57;

SHAWANO        FAIR      63  31  29 SW9       29.82F
6HR MIN TEMP:  33; 6HR MAX TEMP:  63;

OCONTO         FAIR      60  31  32 W15       29.83F
6HR MIN TEMP:  31; 6HR MAX TEMP:  61;

STURGEON BAY   FAIR      60  30  32 SW16      29.85F
6HR MIN TEMP:  37; 6HR MAX TEMP:  60;

GREEN BAY      FAIR      60  37  42 S12       29.86F
6HR MIN TEMP:  37; 6HR MAX TEMP:  60;

MANITOWOC      FAIR      60  31  33 SW13      29.88F
6HR MIN TEMP:  34; 6HR MAX TEMP:  61;

APPLETON       MOSUNNY   61  27  27 SW13      29.85F
CLINTONVILLE   FAIR      62  26  26 SW13      29.84F
6HR MIN TEMP:  33; 6HR MAX TEMP:  61;

OSHKOSH        FAIR      61  33  35 VRB6      29.87F
6HR MIN TEMP:  38; 6HR MAX TEMP:  61;

$$

WIZ032>034-041-042-053>061-261900-
SOUTHWEST WISCONSIN

CITY           SKY/WX    TMP DP  RH WIND       PRES   REMARKS
LA CROSSE      FAIR      69  31  24 W12       29.85F
6HR MIN TEMP:  41; 6HR MAX TEMP:  69;

SPARTA         FAIR      65  30  27 SW8G16    29.87F
6HR MIN TEMP:  31; 6HR MAX TEMP:  65;

VIROQUA        FAIR      62  33  33 W9G21     29.89F
6HR MIN TEMP:  41; 6HR MAX TEMP:  62;

BOSCOBEL       FAIR      67  33  28 NW9G18    29.89F
6HR MIN TEMP:  34; 6HR MAX TEMP:  67;

PRAIRIE DU CHI FAIR      66  27  23 W8G18     29.89F
6HR MIN TEMP:  37; 6HR MAX TEMP:  66;

PLATTEVILLE    FAIR      63  31  30 SW9       29.92F
6HR MIN TEMP:  38; 6HR MAX TEMP:  63;

$$

WIZ056-057-062-063-064-067-068-261900-
SOUTH CENTRAL WISCONSIN

CITY           SKY/WX    TMP DP  RH WIND       PRES   REMARKS
REEDSBURG      FAIR      62  34  34 CALM      29.87F
6HR MIN TEMP:  38; 6HR MAX TEMP:  62;

BARABOO/DELLS  FAIR      62  28  28 W6G16     29.89S
6HR MIN TEMP:  38; 6HR MAX TEMP:  62;

LONE ROCK      FAIR      63  32  31 W9        29.90F
6HR MIN TEMP:  34; 6HR MAX TEMP:  64;

MINERAL POINT  FAIR      64  30  27 W8        29.90F
MADISON        PTSUNNY   61  32  33 SW9       29.89F
6HR MIN TEMP:  38; 6HR MAX TEMP:  61;

MIDDLETON      FAIR      64  29  26 S6        29.90F
6HR MIN TEMP:  42; 6HR MAX TEMP:  65;

WATERTOWN      FAIR      61  33  34 W6G18     29.90F
6HR MIN TEMP:  33; 6HR MAX TEMP:  61;

MONROE         FAIR      61  30  31 SW7G21    29.91F
JANESVILLE     PTSUNNY   63  30  29 W10       29.92F
$$

WIZ051-052-058>065-066-070>072-261900-
SOUTHEAST WISCONSIN

CITY           SKY/WX    TMP DP  RH WIND       PRES   REMARKS
MILWAUKEE      PTSUNNY   62  30  29 W9        29.91F
6HR MIN TEMP:  38; 6HR MAX TEMP:  63;

WAUKESHA       SUNNY     59  30  33 W9G16     29.92F
MILWAUKEE/TIMM SUNNY     63  27  25 SW12      29.91F
RACINE         FAIR      54  31  41 S15       29.93F
6HR MIN TEMP:  37; 6HR MAX TEMP:  58;

BURLINGTON     FAIR      63  31  30 SW10G20   29.91F
6HR MIN TEMP:  31; 6HR MAX TEMP:  63;

KENOSHA        FAIR      63  32  31 SW9G17    29.91F
6HR MIN TEMP:  35; 6HR MAX TEMP:  63;

FOND DU LAC    FAIR      60  34  37 SW8G16    29.88F
6HR MIN TEMP:  38; 6HR MAX TEMP:  61; 6HR PCP: TRACE;

SHEBOYGAN      FAIR      62  33  33 W14G21    29.88F
6HR MIN TEMP:  33; 6HR MAX TEMP:  62;

WEST BEND      FAIR      61  30  31 W9G16     29.89F
JUNEAU         FAIR      59  31  35 W8G21     29.90F
6HR MIN TEMP:  33; 6HR MAX TEMP:  60;

$$

LSZ147-162-261900-
LAKE SUPERIOR

STATION/POSITION TIME  TEMP    WIND        PRES    WAVE
                       AIR SEA DIR/SP/G            HT/PER
                 (UTC) (F)     (DEG/KT/KT) (MB)    (FT/S)
DEVILS ISLAND    1800   42     340/ 22/ 25 1011.3R
SAXON HARBOR     1740          300/  5/ 13 1009.1R
$$

LMZ867-665-643>646-261900-
LAKE MICHIGAN

STATION/POSITION TIME  TEMP    WIND        PRES    WAVE
                       AIR SEA DIR/SP/G            HT/PER




USA.gov is the U.S. government's official web portal to all federal, state and local government web resources and services.